Location: Bastrop State Park
(30.1090°N, 97.2819°W)
Time: 02:21:01
(UTC-06:00)

Daily predictions for brighter satellites

Satellite Brightness Start Highest point End
(mag) Time Altitude Azimuth Time Altitude Azimuth Time Altitude Azimuth
Cosmos 1980 Rocket 4.4 03:55:52 21° E 03:55:52 21° E 03:59:44 10° NE
CENTAUR R/B 3.8 03:55:36 49° NE 03:56:32 50° ENE 04:04:44 10° SE
CZ-3 R/B 3.5 03:59:18 63° WSW 04:03:48 83° S 04:12:57 10° E
USA 215 4.3 04:05:02 10° SE 04:08:50 38° SE 04:08:50 38° SE
Hubble Space Telescope 3.9 04:22:37 13° E 04:22:37 13° E 04:23:07 10° E
Cosmos 1697 Rocket 4.2 04:28:51 29° NNE 04:28:51 29° NNE 04:31:29 10° NNE
SJ 16-02 3.6 04:28:22 23° E 04:28:22 23° E 04:31:10 10° NE
Cosmos 2227 Rocket 3.4 04:39:18 32° SSE 04:39:18 32° SSE 04:42:14 10° SSE
Lacrosse 5 rocket 4.0 04:46:16 13° NNE 04:47:03 13° NE 04:49:06 10° ENE
Cosmos 2297 Rocket 2.4 04:51:36 60° SSE 04:51:36 60° SSE 04:56:09 10° SSE
Cosmos 2285 Rocket 3.9 04:53:07 45° NNW 04:55:19 87° WSW 05:01:45 10° SSE
Cosmos 1707 Rocket 4.1 04:59:48 57° NE 04:59:48 57° NE 05:03:38 10° NNE
Cosmos 1869 Rocket 4.3 04:55:15 10° N 04:59:34 51° E 05:03:54 10° SSE
CZ-4B R/B 3.0 04:55:42 10° N 05:01:11 81° WNW 05:01:25 79° WSW
ASTRO E2 3.7 05:03:46 45° E 05:03:46 45° E 05:06:37 10° E
Milstar 3 Cent rocket 4.1 05:01:16 16° S 05:04:12 24° SE 05:10:19 10° E
Cosmos 1934 Rocket 4.0 04:57:54 10° S 05:04:13 86° E 05:10:37 10° N
IDEFIX/ARIANE 42P 3.8 05:01:40 10° NNE 05:06:33 40° E 05:11:23 10° SSE
Cosmos 2360 4.1 05:09:19 53° SW 05:10:43 79° WNW 05:16:28 10° NNE
Okean O Rocket 4.1 05:09:36 10° N 05:09:42 10° N 05:09:42 10° N
Cosmos 2082 3.7 05:18:49 52° W 05:19:28 55° WSW 05:25:01 10° S
Cosmos 2123 Rocket 4.2 05:13:25 10° N 05:19:39 70° E 05:25:53 10° SSE
OAO 3 Rocket 3.4 05:20:32 52° NW 05:21:30 66° NNE 05:26:27 10° E
Cosmos 1821 Rocket 4.2 05:25:03 42° W 05:25:21 42° W 05:31:11 10° N
Cosmos 2322 Rocket 3.4 05:22:23 10° S 05:27:41 43° ESE 05:33:01 10° NE
USA 116 4.2 05:25:17 10° SSE 05:29:30 73° ENE 05:34:18 10° N
Cosmos 2242 Rocket 4.4 05:25:59 10° S 05:30:24 54° E 05:34:53 10° NNE
Cosmos 1933 3.2 05:28:52 10° S 05:32:56 73° W 05:37:00 10° N
Cosmos 372 Rocket 3.8 05:30:26 24° SSW 05:33:25 62° WNW 05:38:29 10° N
Cosmos 1125 Rocket 3.4 05:30:03 20° SSW 05:33:34 63° WNW 05:38:44 10° N
Cosmos 489 Rocket 4.4 05:29:04 10° SSW 05:35:20 73° WNW 05:41:36 10° NNE
Cosmos 1862 3.2 05:33:40 10° NNW 05:37:37 64° W 05:41:34 10° S
Meteor 2-10 Rocket 4.2 05:39:50 30° WNW 05:39:50 30° WNW 05:43:27 10° NNW
Cosmos 1980 Rocket 2.6 05:37:44 33° W 05:39:15 40° WNW 05:44:33 10° N
CZ-2C R/B 3.7 05:37:37 10° SSE 05:42:20 88° E 05:47:00 10° NNW
LE-5 4.3 05:45:42 30° ESE 05:45:42 30° ESE 05:47:08 10° E
CENTAUR R/B 3.7 05:42:54 22° WNW 05:47:06 34° WSW 05:54:27 10° S
COSMOS 2455 4.0 05:42:47 10° N 05:48:33 44° ENE 05:54:15 10° SE
Tiangong 1 2.2 05:51:58 20° S 05:51:58 20° S 05:53:07 10° SSE
USA 215 4.5 05:50:20 10° SSW 05:54:52 20° WSW 05:56:14 19° WSW
Cosmos 1441 Rocket 3.1 05:50:57 10° S 05:54:54 77° W 05:58:54 10° N
ATLAS 5 CENTAUR R/B 1.6 05:51:36 14° SW 05:55:16 62° WNW 05:59:56 10° NNE
Palapa 6 Rocket 4.4 05:52:27 19° WSW 05:55:26 33° S 05:59:37 10° SE
Hubble Space Telescope 0.9 05:57:58 24° WSW 06:00:19 69° S 06:04:26 10° E
SEDSat Delta rocket 3.1 05:59:48 23° W 06:02:44 74° N 06:07:01 10° E
Cosmos 1862 Rocket 3.4 06:00:52 10° SSW 06:05:09 66° W 06:09:30 10° N
SJ 16-02 2.6 06:05:28 20° W 06:06:02 20° WNW 06:09:19 10° NNW
Aureole 1 Rocket 4.4 06:00:13 10° NNW 06:06:15 34° W 06:11:01 10° SSW
Okean-O 2.8 06:04:21 10° N 06:08:37 48° WNW 06:12:52 10° SSW
MTI 3.7 06:06:38 10° SSE 06:09:48 88° WSW 06:12:59 10° NNW
Cosmos 1733 Rocket 3.0 06:06:17 10° N 06:10:40 85° W 06:15:04 10° S
Cosmos 1605 Rocket 4.4 06:05:11 10° SW 06:10:47 37° W 06:16:23 10° NNW
COSMO-SKYMED 1 2.6 06:07:39 10° S 06:11:54 56° W 06:16:10 10° NNW
SL-16 R/B 2.2 06:06:54 10° SSW 06:12:31 68° WNW 06:18:10 10° NNE
Meteor 1-26 Rocket 4.3 06:06:57 10° SSW 06:12:47 61° W 06:18:34 10° N
Cosmos 2100 Rocket 4.0 06:09:04 10° S 06:15:14 88° E 06:21:24 10° N
Cosmos 1461 4.3 06:13:23 10° S 06:17:21 44° ESE 06:21:33 10° NE
Cosmos 1900 4.4 06:12:39 10° SW 06:17:41 59° WNW 06:22:43 10° NNE
Cosmos 1269 Rocket 4.0 06:15:44 10° NNW 06:21:01 83° WSW 06:26:17 10° SSE
Lacrosse 5 rocket 1.5 06:22:32 10° NW 06:26:25 53° SW 06:30:30 10° SSE
Okean 1-7 4.3 06:23:01 10° SSE 06:27:06 46° E 06:31:15 10° NNE
Cosmos 405 3.5 06:24:27 10° NNW 06:27:45 37° W 06:31:03 10° SSW
CZ-2C R/B 3.0 06:25:26 10° N 06:30:09 39° WNW 06:34:55 10° SW
Cosmos 1606 2.7 06:28:22 10° SSW 06:32:10 63° W 06:35:57 10° N
USA 234 4.4 06:26:51 10° NE 06:33:06 47° SE 06:39:19 10° SSW
Delta 168 3.9 06:33:03 10° SW 06:35:45 27° SSE 06:38:46 10° ESE
SJ-7 4.4 06:33:18 10° N 06:37:22 88° W 06:41:21 10° SSW
Ariane Rocket 4.1 06:34:38 10° NNE 06:39:35 51° E 06:44:29 10° S
Cosmos 2061 Rocket 4.0 06:33:48 10° S 06:39:59 74° W 06:46:10 10° N
Meteor 1-14 Rocket 4.4 06:34:56 10° NNW 06:40:52 69° W 06:46:41 10° S
